Location: College Park
(38.9810°N, 76.9370°W)
Time: 15:09:33
(UTC-05:00)

ISS - Pass Details

Date: 08 January 2018
Orbit: 402 x 407 km, 51.6° (Epoch: 23 January)

Event Time Altitude Azimuth Distance (km) Brightness Sun altitude
Exits shadow 06:48:53 - 328° (NNW) 1,799 -1.0 -7.5°
Reaches altitude 10° 06:50:02 10° 341° (NNW) 1,469 -1.4 -7.3°
Maximum altitude 06:52:06 15° 20° (NNE) 1,182 -1.5 -6.9°
Drops below altitude 10° 06:54:11 10° 59° (ENE) 1,468 -0.5 -6.5°
Sets 06:56:53 0° 83° (E) 2,327 1.2 -6.0°
